Cloud_Cover
52 99 40 0 5 0 0 0 0 0 2 5 3 0 1 4 8 5 5 8 0 0 0 0 0 0 0 0 0 0 0 100 62 5 0 0 0 0 0 5 5 5 23 99 100
100 32 23 4 2 5 4 5 5 4 4 3 6 79 1 1 25 8 5 100 4 0 0 0 0 0 0 0 0 0 0 23 5 0 5 3 0 0 0 4 5 5 6 99 99
100 67 72 5 6 0 5 5 5 5 5 18 5 100 100 10 21 58 75 100 75 1 4 0 0 0 1 0 0 0 8 59 3 4 13 6 0 0 0 0 5 4 0 82 95
5 4 24 3 4 0 0 5 16 5 15 33 9 100 100 100 100 100 100 100 100 46 4 5 0 0 2 5 5 0 74 39 0 52 92 7 1 0 0 0 2 0 0 82 71
5 5 2 1 0 0 0 0 21 32 91 8 9 100 100 100 100 100 100 100 100 100 4 5 3 0 5 5 3 0 11 7 36 100 13 6 0 0 0 0 0 0 0 33 98
60 5 0 0 0 0 0 0 5 5 51 14 12 96 100 100 100 100 100 100 100 100 28 5 5 1 4 4 5 0 4 45 100 67 15 18 0 0 1 0 0 0 10 58 87
3 0 0 0 0 0 0 0 1 5 7 100 93 100 100 100 100 100 100 100 100 100 100 36 5 5 5 2 5 3 0 64 100 34 100 7 0 0 0 0 0 0 1 6 38
0 0 0 0 0 0 0 78 1 5 91 27 88 100 100 100 100 100 100 100 100 100 92 100 52 6 5 1 5 5 3 19 100 26 65 2 0 0 3 1 0 0 28 80 20
1 1 0 0 0 0 0 3 4 28 87 89 58 100 100 100 100 100 100 100 100 100 28 100 82 98 8 5 5 5 5 59 100 53 5 4 0 0 4 4 0 0 0 9 17
5 5 2 0 1 0 0 3 94 76 100 41 91 100 100 100 100 100 100 100 100 100 61 100 100 100 22 6 25 50 74 99 53 5 5 71 3 5 5 2 0 0 0 0 1
30 5 0 0 5 5 1 5 100 100 100 100 100 100 100 100 100 100 100 100 100 86 81 100 100 100 11 28 27 96 100 62 5 29 10 44 4 5 5 5 1 0 0 0 0
5 5 0 4 5 5 1 36 100 100 100 100 100 100 100 100 100 100 100 100 100 100 100 10 99 100 5 5 73 100 84 28 5 89 99 7 63 5 43 4 1 2 0 0 0
4 0 0 5 5 5 16 80 83 100 100 100 100 100 100 100 100 100 100 100 100 99 94 92 100 100 5 6 100 100 76 49 28 96 100 99 62 5 22 24 5 1 0 0 0
0 0 4 5 5 5 24 45 100 100 100 100 100 100 100 100 100 100 100 100 100 96 100 84 100 100 92 62 100 100 12 90 5 20 46 96 81 5 28 43 7 5 5 5 0
0 0 4 5 58 28 14 11 100 100 100 100 100 100 100 100 100 100 86 100 100 100 100 100 100 100 100 99 99 100 100 36 5 5 5 43 100 16 92 5 8 4 5 5 2
0 0 5 5 93 42 12 5 100 100 100 100 100 100 100 100 100 100 100 100 100 100 100 100 100 100 100 97 64 100 84 100 6 5 54 7 100 100 2 0 6 4 4 5 5
5 5 5 16 85 100 40 5 66 100 100 100 100 100 100 100 100 100 100 100 100 100 82 100 100 100 100 100 92 100 100 100 5 5 30 88 86 100 4 0 8 15 78 5 5
5 47 5 5 25 99 83 63 97 99 100 100 100 100 100 100 100 100 100 100 100 100 100 100 100 100 100 100 100 100 100 46 56 12 70 33 98 100 23 5 5 96 34 22 8
2 5 11 5 18 76 100 100 5 13 85 100 100 100 100 100 100 100 100 100 100 100 100 100 100 100 100 100 100 62 98 100 97 90 67 100 100 100 28 5 5 6 100 99 5
35 52 4 0 14 96 100 94 30 78 12 100 100 100 100 100 100 100 100 100 100 100 100 100 100 93 100 100 100 14 90 89 42 34 100 100 100 100 23 34 7 2 29 67 69
50 93 2 3 88 100 100 100 96 16 97 100 100 100 100 100 100 100 100 100 100 100 100 100 98 100 100 100 94 100 70 11 11 9 87 100 100 100 5 39 8 1 1 52 100
100 99 76 55 100 100 100 100 7 5 7 16 100 100 100 100 100 100 100 100 100 100 100 100 100 100 100 100 100 100 79 67 80 66 99 100 100 100 100 5 5 5 5 7 95
100 78 92 79 100 100 98 97 100 0 5 97 35 100 100 100 100 100 100 100 100 100 100 100 100 100 100 100 100 100 100 96 100 100 100 100 100 100 100 60 42 5 6 6 10
100 96 100 100 71 86 88 87 73 5 5 100 53 97 100 100 100 100 100 100 100 100 100 100 99 100 100 100 100 100 98 83 58 69 100 100 100 100 100 100 94 90 99 15 99
100 100 22 100 100 100 92 71 67 27 26 100 89 27 100 99 100 100 100 100 100 100 100 100 96 100 100 100 92 86 99 20 5 78 100 100 100 100 100 100 39 80 40 50 91
100 100 100 96 96 97 100 88 5 47 85 100 70 100 100 46 83 100 100 45 97 100 100 100 100 100 100 100 100 100 100 100 100 100 74 5 55 100 100 100 100 97 100 83 37
100 100 100 20 12 100 100 25 13 99 100 100 100 100 100 94 52 45 40 100 99 100 100 100 100 100 100 100 100 100 100 100 100 100 100 92 44 87 14 100 100 100 100 100 100